Estación Meteorológica Peña el Pijo (Robertgarden) [ 02/19/20 15:25:12 CET ]

Fecha Hora Presion(HPa) Temp (°C) Humedad % Rocio (°C) Viento ( m/s) Direccion Lluvia 1Hora(mm) Lluvia 24H(mm) LLuvia Total(mm)
2020-Jan-24 01:09:17 1008.500 - - - - N     39.88
2020-Jan-24 02:14:46 1007.800 - - - - N     39.88
2020-Jan-24 03:09:27 1007.900 - - - - N     39.88
2020-Jan-24 04:09:30 1008.000 - - - - N     39.88
2020-Jan-24 05:09:14 1007.700 - - - - N     39.88
2020-Jan-24 06:09:05 1007.600 - - - - N     39.88
2020-Jan-24 07:09:08 1007.700 - - - - N     39.88
2020-Jan-24 08:09:10 1007.700 - - - - N     39.88
2020-Jan-24 09:09:25 1008.200 - - - - N     39.88
2020-Jan-24 10:09:38 1008.300 - - - - N     39.88
2020-Jan-24 11:09:19 1009.100 - - - - N     39.88
2020-Jan-24 12:09:09 1009.000 - - - - N     39.88
2020-Jan-24 13:08:53 1008.400 - - - - N     39.88
2020-Jan-24 14:08:43 1007.600 - - - - N     39.88
2020-Jan-24 15:09:22 1007.300 - - - - N     39.88
2020-Jan-24 16:09:30 1006.900 - - - - N     39.88
2020-Jan-24 17:08:57 1006.800 - - - - N     39.88
2020-Jan-24 18:09:54 1006.600 - - - - N     39.88
2020-Jan-24 19:09:19 1007.000 - - - - N     39.88
2020-Jan-24 20:09:25 1007.300 - - - - N     39.88
2020-Jan-24 21:09:24 1007.700 - - - - N     39.88
2020-Jan-24 22:09:22 1007.600 - - - - N     39.88
2020-Jan-24 23:09:08 1007.500 - - - - N     39.88

Temperatura Máxima:    Temperatura Mínima:
Presión Máxima:1009.100 Hpa    Presión Mínima:1006.600 Hpa


Volver